GW7057 Weather Reports


time (UTC)temp
C
wind
direction
speed
KPH
gust
KPH
rain 1hr
cm
rain 24hr
cm
rain mn
cm
humidity
%
barometer
mb
20260506050948 16 179 14.5 14.5 0.00 0.00 0.00 70 1008.0
20260506050446 16 165 4.8 22.5 0.00 0.00 0.00 69 1008.1
20260506044936 16 292 6.4 19.3 0.00 0.00 0.00 68 1008.3
20260506044435 16 245 3.2 14.5 0.00 0.00 0.00 67 1008.1
20260506043931 16 224 4.8 16.1 0.00 0.00 0.00 67 1008.0
20260506043428 16 176 9.7 20.9 0.00 0.00 0.00 67 1008.1
20260506042926 16 138 4.8 11.3 0.00 0.00 0.00 66 1008.0
20260506042425 16 312 4.8 9.7 0.00 0.00 0.00 66 1008.2
20260506041923 16 208 3.2 16.1 0.00 0.00 0.00 66 1008.0
20260506041420 16 212 9.7 19.3 0.00 0.00 0.00 66 1007.9
20260506040917 16 239 4.8 12.9 0.00 0.00 0.00 66 1008.1
20260506040415 16 89 0.0 11.3 0.00 0.00 0.00 65 1008.1
20260506035911 16 240 14.5 14.5 0.00 0.00 0.00 65 1008.1
20260506035409 16 205 6.4 9.7 0.00 0.00 0.00 65 1008.2
20260506034905 16 209 6.4 22.5 0.00 0.00 0.00 64 1008.1
20260506034402 16 168 9.7 14.5 0.00 0.00 0.00 64 1008.1
20260506033859 16 161 3.2 17.7 0.00 0.00 0.00 64 1008.2
20260506033356 16 283 6.4 22.5 0.00 0.00 0.00 64 1008.2
20260506032853 16 146 11.3 17.7 0.00 0.00 0.00 65 1008.2
20260506032350 16 257 14.5 24.1 0.00 0.00 0.00 65 1008.1
20260506031847 16 203 6.4 17.7 0.00 0.00 0.00 65 1008.2
20260506031344 16 159 0.0 16.1 0.00 0.00 0.00 65 1008.2
20260506030842 16 264 6.4 11.3 0.00 0.00 0.00 65 1008.0
20260506030340 16 155 4.8 11.3 0.00 0.00 0.00 65 1008.1
20260506025836 16 144 11.3 12.9 0.00 0.00 0.00 65 1008.0
20260506025332 16 85 3.2 9.7 0.00 0.00 0.00 66 1008.1
20260506024830 16 135 3.2 11.3 0.00 0.00 0.00 65 1008.2
20260506024326 16 139 3.2 14.5 0.00 0.00 0.00 65 1008.1
20260506023823 16 138 4.8 14.5 0.00 0.00 0.00 65 1008.1
20260506023320 16 249 6.4 16.1 0.00 0.00 0.00 65 1008.2
20260506022816 16 173 3.2 12.9 0.00 0.00 0.00 65 1008.2
20260506022314 16 80 3.2 6.4 0.00 0.00 0.00 65 1008.4
20260506021812 16 69 3.2 9.7 0.00 0.00 0.00 65 1008.3
20260506021309 16 248 11.3 11.3 0.00 0.00 0.00 64 1008.2
20260506020805 16 196 8.0 16.1 0.00 0.00 0.00 64 1008.2
20260506020303 16 184 3.2 14.5 0.00 0.00 0.00 64 1008.1
20260506015801 16 153 3.2 6.4 0.00 0.00 0.00 64 1008.1
20260506015258 16 70 4.8 17.7 0.00 0.00 0.00 64 1008.1
20260506014754 16 156 11.3 14.5 0.00 0.00 0.00 63 1008.0
20260506014251 16 232 9.7 9.7 0.00 0.00 0.00 63 1008.0
20260506013748 16 186 1.6 14.5 0.00 0.00 0.00 62 1008.0
20260506013246 16 227 8.0 9.7 0.00 0.00 0.00 62 1007.7
20260506012742 16 147 11.3 14.5 0.00 0.00 0.00 61 1007.9
20260506012239 17 171 6.4 14.5 0.00 0.00 0.00 61 1007.9
20260506011736 17 146 14.5 17.7 0.00 0.00 0.00 60 1007.7
20260506011232 17 107 9.7 11.3 0.00 0.00 0.00 60 1007.7
20260506010731 17 175 3.2 16.1 0.00 0.00 0.00 60 1007.5
20260506010228 17 142 6.4 12.9 0.00 0.00 0.00 59 1007.5
20260506005725 17 217 6.4 9.7 0.00 0.00 0.00 60 1007.4
20260506005222 17 173 4.8 16.1 0.00 0.00 0.00 59 1007.3
20260506004717 17 177 4.8 17.7 0.00 0.00 0.00 59 1007.3
20260506004216 17 202 8.0 14.5 0.00 0.00 0.00 59 1007.4
20260506003711 17 123 6.4 16.1 0.00 0.00 0.00 58 1007.3
20260506003208 18 139 6.4 19.3 0.00 0.00 0.00 58 1007.1
20260506002704 18 254 16.1 17.7 0.00 0.00 0.00 57 1007.1
20260506002200 18 145 6.4 20.9 0.00 0.00 0.00 57 1007.0
20260506001656 18 237 6.4 17.7 0.00 0.00 0.00 58 1007.0
20260506001154 18 167 8.0 14.5 0.00 0.00 0.00 57 1006.8
20260506000650 18 223 4.8 14.5 0.00 0.00 0.00 57 1006.8
20260506000148 18 143 4.8 19.3 0.00 0.00 0.00 56 1006.6
20260505235646 18 147 6.4 12.9 0.00 0.00 0.00 56 1006.6
20260505235143 18 152 6.4 9.7 0.00 0.00 0.00 55 1006.6
20260505234639 18 144 3.2 24.1 0.00 0.00 0.00 54 1006.6
20260505234136 19 168 4.8 14.5 0.00 0.00 0.00 54 1006.6
20260505233633 19 231 6.4 12.9 0.00 0.00 0.00 53 1006.5
20260505233131 19 240 11.3 12.9 0.00 0.00 0.00 53 1006.5
20260505232628 20 111 6.4 16.1 0.00 0.00 0.00 52 1006.3
20260505232126 20 231 8.0 20.9 0.00 0.00 0.00 52 1006.2
20260505231623 20 184 11.3 27.4 0.00 0.00 0.00 52 1006.2
20260505231121 20 75 4.8 9.7 0.00 0.00 0.00 51 1005.8
20260505230619 20 186 3.2 17.7 0.00 0.00 0.00 50 1005.8
20260505230115 20 99 4.8 17.7 0.00 0.00 0.00 49 1005.9
20260505225612 21 255 6.4 9.7 0.00 0.00 0.00 50 1005.8
20260505225108 21 264 6.4 24.1 0.00 0.00 0.00 48 1005.6
20260505224605 21 341 3.2 22.5 0.00 0.00 0.00 49 1005.7
20260505224102 21 126 6.4 16.1 0.00 0.00 0.00 48 1005.8
20260505223559 21 151 3.2 9.7 0.00 0.00 0.00 48 1005.8
20260505223055 21 178 6.4 9.7 0.00 0.00 0.00 47 1005.4
20260505222552 22 134 4.8 14.5 0.00 0.00 0.00 46 1005.4
20260505222048 22 208 0.0 17.7 0.00 0.00 0.00 45 1005.2
20260505221545 22 188 4.8 22.5 0.00 0.00 0.00 45 1005.3
20260505221041 22 128 8.0 20.9 0.00 0.00 0.00 45 1005.0
20260505220539 22 252 8.0 17.7 0.00 0.00 0.00 45 1005.0
20260505220037 22 203 6.4 20.9 0.00 0.00 0.00 45 1005.3
20260505215535 23 187 8.0 20.9 0.00 0.00 0.00 44 1005.5
20260505215032 23 258 8.0 25.7 0.00 0.00 0.00 44 1005.4
20260505214530 22 180 6.4 17.7 0.00 0.00 0.00 45 1005.4
20260505214026 22 156 3.2 14.5 0.00 0.00 0.00 46 1005.0
20260505213525 23 154 6.4 12.9 0.00 0.00 0.00 45 1005.2
20260505213021 23 205 8.0 22.5 0.00 0.00 0.00 44 1005.4
20260505212517 23 133 4.8 19.3 0.00 0.00 0.00 43 1005.3
20260505212014 24 170 9.7 24.1 0.00 0.00 0.00 42 1005.1
20260505211512 24 219 1.6 11.3 0.00 0.00 0.00 43 1004.9
20260505211008 24 195 8.0 30.6 0.00 0.00 0.00 42 1004.9
20260505210505 24 192 4.8 24.1 0.00 0.00 0.00 41 1005.1
20260505210001 25 228 8.0 19.3 0.00 0.00 0.00 41 1004.8
20260505205500 24 168 4.8 22.5 0.00 0.00 0.00 42 1004.8
20260505204956 24 231 24.1 27.4 0.00 0.00 0.00 40 1005.0
20260505204454 25 315 12.9 20.9 0.00 0.00 0.00 39 1005.1
20260505203951 25 239 16.1 20.9 0.00 0.00 0.00 40 1004.8
20260505203448 25 213 16.1 35.4 0.00 0.00 0.00 38 1005.0
20260505202944 25 167 14.5 27.4 0.00 0.00 0.00 38 1005.0
20260505202441 25 239 8.0 30.6 0.00 0.00 0.00 38 1005.0
20260505201937 26 139 8.0 17.7 0.00 0.00 0.00 38 1005.2
20260505201434 25 229 22.5 27.4 0.00 0.00 0.00 36 1005.1
20260505200932 26 161 11.3 20.9 0.00 0.00 0.00 37 1004.9
20260505200429 26 206 8.0 25.7 0.00 0.00 0.00 38 1004.8
20260505195925 26 176 6.4 25.7 0.00 0.00 0.00 36 1004.9
20260505195422 26 215 17.7 25.7 0.00 0.00 0.00 35 1005.1
20260505194920 26 224 17.7 37.0 0.00 0.00 0.00 36 1005.0
20260505194417 26 231 6.4 27.4 0.00 0.00 0.00 37 1004.6
20260505193916 26 230 24.1 24.1 0.00 0.00 0.00 35 1004.8
20260505193415 26 230 19.3 24.1 0.00 0.00 0.00 36 1004.8
20260505192912 26 213 12.9 33.8 0.00 0.00 0.00 35 1004.8
20260505192410 27 271 4.8 16.1 0.00 0.00 0.00 36 1004.9
20260505191908 26 281 12.9 35.4 0.00 0.00 0.00 35 1004.8
20260505191406 26 243 11.3 20.9 0.00 0.00 0.00 35 1005.0
20260505190902 26 235 19.3 25.7 0.00 0.00 0.00 36 1005.1
20260505190358 26 233 17.7 29.0 0.00 0.00 0.00 35 1005.3
20260505185858 26 167 12.9 27.4 0.00 0.00 0.00 35 1005.1
20260505185355 26 249 29.0 37.0 0.00 0.00 0.00 35 1005.4
20260505184852 26 219 9.7 45.1 0.00 0.00 0.00 34 1005.4
20260505184349 26 230 9.7 35.4 0.00 0.00 0.00 34 1005.4
20260505183846 26 221 14.5 22.5 0.00 0.00 0.00 35 1005.4
20260505183343 26 141 14.5 22.5 0.00 0.00 0.00 35 1005.5
20260505182839 26 223 14.5 27.4 0.00 0.00 0.00 36 1005.4
20260505182336 26 237 12.9 25.7 0.00 0.00 0.00 37 1005.2
20260505181833 26 235 17.7 20.9 0.00 0.00 0.00 36 1005.3
20260505181330 26 106 3.2 17.7 0.00 0.00 0.00 40 1005.4
20260505180827 26 212 8.0 20.9 0.00 0.00 0.00 39 1005.5
20260505180323 26 139 3.2 17.7 0.00 0.00 0.00 39 1005.5
20260505175820 26 229 4.8 16.1 0.00 0.00 0.00 38 1005.5
20260505175316 26 215 8.0 17.7 0.00 0.00 0.00 39 1005.7
20260505174813 26 151 8.0 29.0 0.00 0.00 0.00 40 1005.8
20260505174310 25 122 9.7 22.5 0.00 0.00 0.00 37 1005.8
20260505173806 25 144 8.0 27.4 0.00 0.00 0.00 38 1005.8
20260505173303 26 257 6.4 22.5 0.00 0.00 0.00 38 1005.8
20260505172759 25 171 4.8 20.9 0.00 0.00 0.00 40 1005.9
20260505172257 25 156 9.7 19.3 0.00 0.00 0.00 39 1005.9
20260505171752 25 137 1.6 17.7 0.00 0.00 0.00 41 1005.7
20260505171249 25 166 16.1 20.9 0.00 0.00 0.00 41 1006.2
20260505170745 25 131 9.7 19.3 0.00 0.00 0.00 40 1006.5
20260505170243 25 142 11.3 12.9 0.00 0.00 0.00 40 1006.3
20260505165744 25 129 9.7 14.5 0.00 0.00 0.00 41 1006.5
20260505165240 25 182 14.5 24.1 0.00 0.00 0.00 42 1006.7
20260505164735 25 145 6.4 12.9 0.00 0.00 0.00 43 1006.6
20260505164233 25 193 12.9 24.1 0.00 0.00 0.00 41 1006.7
20260505163731 25 229 14.5 19.3 0.00 0.00 0.00 42 1006.6
20260505163229 25 170 4.8 16.1 0.00 0.00 0.00 43 1007.0
20260505162726 24 120 4.8 11.3 0.00 0.00 0.00 43 1007.0
20260505162223 24 256 9.7 14.5 0.00 0.00 0.00 42 1007.0
20260505161720 24 167 11.3 12.9 0.00 0.00 0.00 42 1006.9
20260505161218 24 222 9.7 20.9 0.00 0.00 0.00 41 1007.3
20260505160715 24 70 3.2 11.3 0.00 0.00 0.00 42 1007.0
20260505160213 23 217 3.2 17.7 0.00 0.00 0.00 46 1007.2
20260505153152 23 177 3.2 19.3 0.00 0.00 0.00 44 1007.6
20260505152648 22 72 9.7 17.7 0.00 0.00 0.00 47 1007.8
20260505152144 22 210 4.8 6.4 0.00 0.00 0.00 49 1007.6
20260505151640 21 85 1.6 9.7 0.00 0.00 0.00 51 1008.0
20260505151137 21 158 1.6 9.7 0.00 0.00 0.00 51 1007.7
20260505150633 21 187 3.2 9.7 0.00 0.00 0.00 53 1007.7
20260505150130 20 234 8.0 8.0 0.00 0.00 0.00 52 1007.5
20260505140559 18 253 8.0 12.9 0.00 0.00 0.00 59 1007.6
20260505125012 15 148 6.4 6.4 0.00 0.00 0.00 68 1008.1
20260505124509 15 89 0.0 3.2 0.00 0.00 0.00 70 1008.1
20260505124005 15 142 4.8 8.0 0.00 0.00 0.00 68 1008.3
20260505123502 15 141 3.2 6.4 0.00 0.00 0.00 71 1008.3
20260505122958 14 149 12.9 17.7 0.00 0.00 0.00 71 1008.4
20260505122455 13 116 6.4 8.0 0.00 0.00 0.00 73 1008.3
20260505121952 13 331 3.2 9.7 0.00 0.00 0.00 75 1008.4
20260505121449 13 226 8.0 8.0 0.00 0.00 0.00 74 1008.2
20260505120945 13 121 3.2 9.7 0.00 0.00 0.00 74 1008.4
20260505120441 13 183 3.2 9.7 0.00 0.00 0.00 74 1008.2
20260505115940 13 161 1.6 6.4 0.00 0.00 0.00 75 1008.4
20260505115437 13 229 3.2 9.7 0.00 0.00 0.00 75 1008.3
20260505114935 13 27 1.6 11.3 0.00 0.00 0.00 75 1008.4
20260505114431 13 158 3.2 9.7 0.00 0.00 0.00 75 1007.9
20260505113927 13 99 0.0 6.4 0.00 0.00 0.00 76 1008.0
20260505113424 12 146 9.7 16.1 0.00 0.00 0.00 77 1008.1
20260505112920 12 151 8.0 16.1 0.00 0.00 0.00 78 1007.9
20260505112418 12 244 9.7 14.5 0.00 0.00 0.00 80 1008.0
20260505111914 12 220 3.2 12.9 0.00 0.00 0.00 81 1007.9
20260505111408 11 158 4.8 8.0 0.00 0.00 0.00 83 1007.9
20260505110905 11 154 3.2 6.4 0.00 0.00 0.00 85 1007.7
20260505110402 10 119 6.4 6.4 0.00 0.00 0.00 88 1007.8
20260505101833 8 108 4.8 6.4 0.00 0.00 0.00 93 1007.5
20260505101328 7 92 3.2 4.8 0.00 0.00 0.00 93 1007.4
20260505100824 7 88 4.8 4.8 0.00 0.00 0.00 93 1007.4
20260505100321 7 84 3.2 6.4 0.00 0.00 0.00 93 1007.4
20260505095816 7 91 3.2 4.8 0.00 0.00 0.00 92 1007.2
20260505095314 7 104 3.2 4.8 0.00 0.00 0.00 92 1007.7
20260505094809 7 68 0.0 3.2 0.00 0.00 0.00 92 1007.4
20260505094307 7 109 0.0 3.2 0.00 0.00 0.00 92 1007.4
20260505093802 7 59 1.6 3.2 0.00 0.00 0.00 92 1007.4
20260505093300 7 113 4.8 4.8 0.00 0.00 0.00 92 1007.7
20260505092757 7 96 4.8 6.4 0.00 0.00 0.00 91 1007.3
20260505092255 7 97 4.8 4.8 0.00 0.00 0.00 91 1007.3
20260505091752 7 88 3.2 9.7 0.00 0.00 0.00 92 1007.5
20260505091250 7 95 3.2 6.4 0.00 0.00 0.00 91 1007.5
20260505090748 7 111 3.2 8.0 0.00 0.00 0.00 91 1007.5
20260505090246 7 103 3.2 6.4 0.00 0.00 0.00 91 1007.5
20260505085743 7 87 3.2 4.8 0.00 0.00 0.00 90 1007.5
20260505085241 7 92 3.2 4.8 0.00 0.00 0.00 90 1007.7
20260505084738 7 96 3.2 4.8 0.00 0.00 0.00 89 1007.6
20260505084237 7 98 4.8 4.8 0.00 0.00 0.00 89 1007.6
20260505083734 7 97 4.8 4.8 0.00 0.00 0.00 88 1007.7
20260505083230 7 96 3.2 3.2 0.00 0.00 0.00 88 1007.8
20260505082726 7 71 1.6 4.8 0.00 0.00 0.00 88 1007.7
20260505082224 7 82 3.2 3.2 0.00 0.00 0.00 87 1007.7
20260505081719 8 103 4.8 4.8 0.00 0.00 0.00 86 1007.8
20260505081217 8 87 3.2 6.4 0.00 0.00 0.00 86 1007.8
20260505080714 8 91 3.2 6.4 0.00 0.00 0.00 85 1007.8
20260505080209 8 104 3.2 4.8 0.00 0.00 0.00 84 1007.9
20260505075706 8 123 4.8 6.4 0.00 0.00 0.00 83 1007.8
20260505075203 8 107 4.8 4.8 0.00 0.00 0.00 82 1007.9
20260505074700 9 107 3.2 6.4 0.00 0.00 0.00 81 1007.9
20260505074156 9 97 3.2 8.0 0.00 0.00 0.00 80 1007.9
20260505073654 10 116 4.8 6.4 0.00 0.00 0.00 79 1007.7
20260505073152 10 101 6.4 6.4 0.00 0.00 0.00 79 1007.9
20260505072648 10 96 3.2 6.4 0.00 0.00 0.00 78 1008.1
20260505072145 10 96 4.8 6.4 0.00 0.00 0.00 76 1007.8
20260505071640 10 102 3.2 8.0 0.00 0.00 0.00 76 1007.9
20260505071138 10 89 3.2 4.8 0.00 0.00 0.00 75 1007.7
20260505070635 10 120 3.2 4.8 0.00 0.00 0.00 74 1007.8
20260505070131 10 88 3.2 4.8 0.00 0.00 0.00 73 1008.1
20260505065627 11 85 3.2 3.2 0.00 0.00 0.00 71 1007.9
20260505065124 11 98 3.2 8.0 0.00 0.00 0.00 68 1008.0
20260505064621 12 72 3.2 8.0 0.00 0.00 0.00 64 1008.0
20260505064119 12 132 6.4 8.0 0.00 0.00 0.00 63 1008.1
20260505063616 12 150 3.2 6.4 0.00 0.00 0.00 63 1008.0
20260505063112 12 50 0.0 4.8 0.00 0.00 0.00 62 1007.9
20260505062609 12 124 1.6 11.3 0.00 0.00 0.00 62 1008.1
20260505062106 12 125 3.2 8.0 0.00 0.00 0.00 62 1008.0
20260505061603 12 228 8.0 11.3 0.00 0.00 0.00 62 1007.9
20260505061101 12 106 3.2 12.9 0.00 0.00 0.00 63 1007.9
20260505060558 12 209 8.0 11.3 0.00 0.00 0.00 64 1008.1
20260505060055 12 240 6.4 20.9 0.00 0.00 0.00 64 1008.1